"Pseudo-MPEC" for P22oLCJ

Created 2026 Aug 6 23:35:11 UT using Find_Orb

Click here for an explanation of pseudo-MPECs

 
 Astrometry: 
     P22oLCJ 0C2026 06 25.50990319 58 47.604-13 33 07.34   ~86NZ 20.01GVNEOCPF52
     P22oLCJ 0C2026 06 25.52144019 58 48.306-13 33 06.15   ~86NZ 21.74GVNEOCPF52
     P22oLCJ 0C2026 06 25.53300619 58 49.007-13 33 04.92   ~86NZ 21.46GVNEOCPF52
     P22oLCJ 0C2026 06 25.54455019 58 49.747-13 33 03.66   ~86NZ 21.49GVNEOCPF52
     P22oLCJ 0C2026 07 07.49423220 12 34.963-13 30 42.11   ~86NZ 21.41GVNEOCPF51
     P22oLCJ 0C2026 07 07.50621420 12 35.611-13 30 42.94   ~86NZx21.86GVNEOCPF51
     P22oLCJ 0C2026 07 07.51819420 12 36.363-13 30 44.14   ~86NZ 21.09GVNEOCPF51
     P22oLCJ 0C2026 07 07.53016020 12 37.085-13 30 44.84   ~86NZ 21.44GVNEOCPF51
     P22oLCJ*0C2026 08 03.43872520 47 28.876-15 57 45.95   ~83CK 20.07wXNEOCPF52
     P22oLCJ 0C2026 08 03.45214420 47 29.940-15 57 52.97   ~83CK 20.14wXNEOCPF52
     P22oLCJ 0C2026 08 03.46555720 47 31.003-15 57 59.73   ~83CK 20.07wXNEOCPF52
     P22oLCJ 0C2026 08 03.47899920 47 32.073-15 58 06.64   ~83CK 19.97wXNEOCPF52
     P22oLCJ 0C2026 08 03.52735220 47 35.955-15 58 30.87   ~840K 19.87GVNEOCPF51
     P22oLCJ 0C2026 08 03.52800120 47 36.015-15 58 31.21   ~840K 19.83GVNEOCPF51
     P22oLCJ KB2026 08 03.86280 20 48 09.33 -16 01 39.9    ~83Lo 19.7 GXNEOCPM45
     P22oLCJ KB2026 08 03.87982 20 48 10.75 -16 01 47.9    ~83Lo 19.6 GXNEOCPM45
     P22oLCJ IB2026 08 03.96153920 48 17.930-16 02 32.10   ~840K 18.9 GXNEOCP595
     P22oLCJ KB2026 08 03.97293520 48 18.871-16 02 37.50   ~840K 19.5 GXNEOCP595
     P22oLCJ KB2026 08 03.98433820 48 19.788-16 02 42.90   ~840K 19.5 GXNEOCP595
     P22oLCJ KB2026 08 04.12860020 48 34.470-16 03 56.55   ~844Z 19.8 GXNEOCPW62
     P22oLCJ KB2026 08 04.14955120 48 36.199-16 04 07.99   ~844Z 19.6 GXNEOCPW62
     P22oLCJ KC2026 08 04.20320120 48 41.18 -16 04 36.0    ~845Z 20.6 GVNEOCPH21
     P22oLCJ KC2026 08 04.20674320 48 41.46 -16 04 38.0    ~845Z 21.4 GVNEOCPH21
     P22oLCJ KC2026 08 04.21056520 48 41.77 -16 04 39.9    ~845Z 20.6 GVNEOCPH21
     P22oLCJ 0B2026 08 04.99446420 49 55.227-16 11 04.68   ~858Z       WNEOCPM21
     P22oLCJ 0B2026 08 05.00553820 49 56.160-16 11 10.33   ~858Z 19.9 GWNEOCPM21
     P22oLCJ 0B2026 08 05.01643820 49 57.058-16 11 15.96   ~858Z       WNEOCPM21
     P22oLCJ KC2026 08 05.16911820 50 13.43 -16 13 11.2    ~854o 20.0 GVNEOCPH21
     P22oLCJ KC2026 08 05.17191520 50 13.65 -16 13 12.9    ~854o 20.1 GVNEOCPH21
     P22oLCJ KC2026 08 05.17471020 50 13.90 -16 13 14.5    ~854o 20.2 GVNEOCPH21
     P22oLCJ KC2026 08 05.17750520 50 14.13 -16 13 16.0    ~854o 20.3 GVNEOCPH21
     P22oLCJ KC2026 08 05.17992820 50 14.34 -16 13 17.2    ~854o 20.2 GVNEOCPH21
     P22oLCJ KC2026 08 06.17831 20 51 50.01 -16 21 43.8    ~865ox19.8 GVNEOCPW94
     P22oLCJ KC2026 08 06.18459 20 51 50.57 -16 21 46.6    ~865o 19.9 GVNEOCPW94
     P22oLCJ KC2026 08 06.19081 20 51 51.13 -16 21 50.4    ~865o 19.9 GVNEOCPW94
     P22oLCJ KB2026 08 06.95445620 53 06.45 -16 29 18.8    ~86NK 19.4 GXNEOCPI93
     P22oLCJ KB2026 08 06.95794120 53 06.79 -16 29 20.9    ~86NK 19.0 GXNEOCPI93
     P22oLCJ KB2026 08 06.96124120 53 07.12 -16 29 23.0    ~86NK 19.3 GXNEOCPI93

Station data:
(595) Farra d'Isonzo  (N45.915731 E13.525780)  Italy.  Observers S. Aschi, E.
   Pettarin, G. Panterotto. Measurers S. Aschi, E. Pettarin. 0.40-m f/5.15
   reflector + CCD.
(F51) Pan-STARRS 1, Haleakala  (N20.707234 W156.255910)  US/Hawaii.
   Observers J. Herman, T. Lowe, P. Minguez, A. Schultz, I. Smith. Measurers
   K. Chambers, T. de Boer, J. Fairlamb, H. Gao, M. Huber, C.-C. Lin, E.
   Magnier, Y. Ramanjooloo, R. Wainscoat, R. Weryk. 1.8-m Ritchey-Chrétien +
   CCD.
(F52) Pan-STARRS 2, Haleakala  (N20.707382 W156.255910)  US/Hawaii.
   Observers J. Herman, T. Lowe, P. Minguez, A. Schultz, I. Smith. Measurers
   K. Chambers, T. de Boer, J. Fairlamb, H. Gao, M. Huber, C.-C. Lin, E.
   Magnier, Y. Ramanjooloo, R. Wainscoat, R. Weryk. 1.8-m Ritchey-Chrétien +
   CCD.
(H21) Astronomical Research Observatory, Westfield  (N39.483054 W87.968270)
   US/Illinois.  Observer R. Holmes. Measurers S. Foglia, L. Buzzi, T.
   Linder, R. Holmes. 0.40-m f/5.32 astrograph + CCD.
(I93) St Pardon de Conques  (N44.558670 W0.202960)  France.  Observers F.
   Losse, W. D'Anna. Measurer F. Losse. 0.40-m f/3.7 reflector + CCD.
(M21) Schiaparelli Southern Observatory, Hakos  (S23.236549 E16.361440)
   Namibia.  Observers A. Aletti, F. Bellini, L. Buzzi, G. Galli. Measurer L.
   Buzzi. 0.36-m f/8.4 reflector + CCD.
(M45) Starhopper Observatory, Sfantu Gheorghe  (N45.865494 E25.768890)
   Romania.  Observer F. Ursache. 0.41-m f/7.5 reflector + CMO.
(W62) Comet Hunter Observatory2, New Ringgold  (N40.745185 W75.862390)
   US/Pennsylvania.  Observer J. Maikner. 0.30-m f/3.8 Riccardi-Honders + CCD.
(W94) AMACS1, San Pedro de Atacama  (S22.953074 W68.179810)  Chile.  Observers
   A. Maury, G. Attard. Measurers A. Maury, G. Attard, D. Parrott. 0.28-m
   f/2.2 Schmidt + CCD.

Orbital elements:  P22oLCJ
   Perihelion 2026 Aug 24.038903 +/- 0.00174 TT =  0:56:01.2 (JD 2461276.538903)
Epoch 2026 Aug  6.0 TT = JDT 2461258.5   Earth MOID: 0.2356   Ma: 0.0493
M 355.098838224 +/- 0.0015          (J2000 ecliptic)             AutoNEOCP
n   0.271699539 +/- 7.59e-5         Peri.  191.271528 +/- 0.0018
a   2.360895588 +/- 0.00044         Node   136.819226 +/- 0.00014
e   0.47172534 +/- 8.25e-5          Incl.    3.430009 +/- 0.00040
P   3.62756                H 22.33  G  0.15   U  6.4
q 1.247201295 +/- 3.83e-5    Q 3.474589881 +/- 0.000842
36 of 38 observations 2026 June 25-Aug. 6; mean residual 0".46
Residuals in arcseconds: 
260625 F52  .04-  .06-    260803 F51  .08+  .08+    260805 M21  .12+  .12+    
260625 F52  .07-  .03-    260803 M45  .46+  1.5-    260805 H21  .71+  .01+    
260625 F52  .16-  .02+    260803 M45  .34+  .27-    260805 H21  .45+  .13-    
260625 F52  .32+  .07+    260803 595  .38+  1.0-    260805 H21  .63+  .17-    
260707 F51  .09-  .01-    260803 595  .24+  .42-    260805 H21  .52+  .12-    
260707 F51( .86-  .13+)   260803 595  .25-  .15+    260805 H21  .58+  .02+    
260707 F51  .13-  .12-    260804 W62  .94-  .35+    260806 W94( 1.7-  1.2-)   
260707 F51  .14+  .09+    260804 W62  1.3-  .42+    260806 W94  1.2-  .58-    
260803 F52  .03-  .04+    260804 H21  .56+  .68+    260806 W94  .56-  1.0-    
260803 F52  .02+  .00     260804 H21  .37+  .60+    260806 I93  .57-  .22+    
260803 F52  .04+  .15+    260804 H21  .27+  .76+    260806 I93  .08-  .05+    
260803 F52  .07+  .11+    260804 M21  .24-  .06+    260806 I93  .51+  .22-    
260803 F51  .02-  .10+    260805 M21  .12+  .14+    

Ephemerides (geocentric):
Date (UTC) HH   RA             Dec           delta  r     elong  mag " sig PA
---- --------  ------------   ------------  ------ ------ -----  --- --------
2026 08 07 00  20 53 10.531   -16 29 12.94  .24624 1.2601 176.8 20.1 .064 160
2026 08 07 01  20 53 14.641   -16 29 35.64  .24619 1.2601 176.8 20.1 .065 159
2026 08 07 02  20 53 18.753   -16 29 58.34  .24613 1.2600 176.8 20.1 .066 159
2026 08 07 03  20 53 22.868   -16 30 21.05  .24608 1.2599 176.7 20.1 .067 159
2026 08 07 04  20 53 26.985   -16 30 43.77  .24603 1.2599 176.7 20.1 .068 159
2026 08 07 05  20 53 31.106   -16 31 06.49  .24598 1.2598 176.7 20.1 .069 159
2026 08 07 06  20 53 35.228   -16 31 29.22  .24593 1.2597 176.7 20.1 .070 159
2026 08 07 07  20 53 39.354   -16 31 51.95  .24588 1.2597 176.6 20.1 .071 159
2026 08 07 08  20 53 43.482   -16 32 14.69  .24582 1.2596 176.6 20.1 .072 159
2026 08 07 09  20 53 47.612   -16 32 37.43  .24577 1.2596 176.6 20.1 .073 159
2026 08 07 10  20 53 51.746   -16 33 00.18  .24572 1.2595 176.6 20.1 .074 159
2026 08 07 11  20 53 55.882   -16 33 22.93  .24567 1.2594 176.6 20.1 .075 159
2026 08 07 12  20 54 00.020   -16 33 45.69  .24562 1.2594 176.5 20.1 .076 159
2026 08 07 13  20 54 04.161   -16 34 08.45  .24557 1.2593 176.5 20.1 .077 159
2026 08 07 14  20 54 08.305   -16 34 31.22  .24552 1.2593 176.5 20.1 .077 158
2026 08 07 15  20 54 12.452   -16 34 53.99  .24547 1.2592 176.5 20.1 .078 158
2026 08 07 16  20 54 16.601   -16 35 16.77  .24542 1.2591 176.4 20.1 .079 158
2026 08 07 17  20 54 20.753   -16 35 39.55  .24537 1.2591 176.4 20.1 .080 158
2026 08 07 18  20 54 24.907   -16 36 02.33  .24532 1.2590 176.4 20.1 .081 158
2026 08 07 19  20 54 29.065   -16 36 25.12  .24527 1.2590 176.4 20.1 .082 158
2026 08 07 20  20 54 33.224   -16 36 47.91  .24523 1.2589 176.4 20.1 .083 158
2026 08 07 21  20 54 37.387   -16 37 10.71  .24518 1.2588 176.3 20.1 .084 158
2026 08 07 22  20 54 41.552   -16 37 33.51  .24513 1.2588 176.3 20.1 .085 158
2026 08 07 23  20 54 45.720   -16 37 56.32  .24508 1.2587 176.3 20.1 .086 158
2026 08 08 00  20 54 49.890   -16 38 19.12  .24503 1.2587 176.3 20.1 .087 158
2026 08 08 01  20 54 54.063   -16 38 41.94  .24499 1.2586 176.2 20.1 .088 158
2026 08 08 02  20 54 58.239   -16 39 04.75  .24494 1.2585 176.2 20.1 .089 158
2026 08 08 03  20 55 02.418   -16 39 27.57  .24489 1.2585 176.2 20.1 .090 158
2026 08 08 04  20 55 06.599   -16 39 50.39  .24484 1.2584 176.2 20.1 .091 158
2026 08 08 05  20 55 10.782   -16 40 13.22  .24480 1.2584 176.2 20.1 .092 157
2026 08 08 06  20 55 14.969   -16 40 36.04  .24475 1.2583 176.1 20.1 .093 157
2026 08 08 07  20 55 19.158   -16 40 58.87  .24470 1.2582 176.1 20.1 .094 157
2026 08 08 08  20 55 23.350   -16 41 21.71  .24466 1.2582 176.1 20.1 .095 157
2026 08 08 09  20 55 27.544   -16 41 44.54  .24461 1.2581 176.1 20.1 .096 157
2026 08 08 10  20 55 31.741   -16 42 07.38  .24456 1.2581 176.0 20.1 .097 157
2026 08 08 11  20 55 35.941   -16 42 30.22  .24452 1.2580 176.0 20.1 .098 157
2026 08 08 12  20 55 40.143   -16 42 53.07  .24447 1.2580 176.0 20.1 .099 157
2026 08 08 13  20 55 44.348   -16 43 15.91  .24443 1.2579 176.0 20.1 .100 157
2026 08 08 14  20 55 48.556   -16 43 38.76  .24438 1.2578 175.9 20.1 .101 157
2026 08 08 15  20 55 52.767   -16 44 01.61  .24434 1.2578 175.9 20.1 .102 157
2026 08 08 16  20 55 56.980   -16 44 24.46  .24429 1.2577 175.9 20.1 .103 157
2026 08 08 17  20 56 01.196   -16 44 47.31  .24425 1.2577 175.9 20.1 .104 157
2026 08 08 18  20 56 05.414   -16 45 10.17  .24420 1.2576 175.8 20.1 .105 157
2026 08 08 19  20 56 09.635   -16 45 33.03  .24416 1.2576 175.8 20.1 .106 157
2026 08 08 20  20 56 13.859   -16 45 55.88  .24412 1.2575 175.8 20.1 .107 157
2026 08 08 21  20 56 18.086   -16 46 18.74  .24407 1.2574 175.8 20.1 .108 157
2026 08 08 22  20 56 22.315   -16 46 41.60  .24403 1.2574 175.7 20.1 .109 156
2026 08 08 23  20 56 26.547   -16 47 04.46  .24399 1.2573 175.7 20.1 .110 156